[[{"header":{"parameterUnit":"m.s-1","parameterCategory":2,"la1":30.2991,"la2":30.254,"lo1":-89.0895,"lo2":-89.0444,"dy":0.0017,"dx":0.0017,"nx":28,"ny":28,"refTime":"2023-08-10T09:00:00:Z","depth":"0","parameterNumber":2,"parameterNumberName":"U-component_of_CURRENTS"},"data":[0,0,0,0,0,0,0,0,0,0,0,0,0,0,0,0,0,0,0,0,0,0,0,0,0,0,0,0,0,0,0,0,0,0,0,0,0,0,0,0,0,0,0,0,0,0,0,0,0,0,0,0,0,0,0,0,0,0,0.4031,0.403,0,0.3954,0.3954,0.3953,0.3873,0.3871,0.387,0.3869,0.4113,0.412,0.4128,0,0,0,0,0,0,0,0,0,0,0,0,0,0.4028,0.4029,0.4031,0.403,0.4029,0.3954,0.3954,0.3953,0.3873,0.3871,0.387,0.3868,0.411,0.4119,0.4128,0,0,0,0,0,0,0,0,0,0,0,0,0,0.3999,0.4029,0.4032,0.398,0.3974,0.3955,0.3953,0.3952,0.3873,0.3871,0.3869,0.3868,0.4107,0.4118,0.4129,0.4236,0,0,0.4164,0.4169,0,0,0,0,0,0,0,0,0.4001,0.4,0.3988,0.3983,0.3977,0.392,0.4041,0.4063,0.3874,0.3913,0.3869,0.3867,0.4079,0.4092,0.4079,0.4247,0.4258,0.4165,0.4172,0.4177,0.418,0,0,0,0,0,0,0,0.4003,0.4002,0.4002,0.3987,0.398,0.3932,0.3927,0.4043,0.4014,0.3909,0.3903,0.3893,0.4078,0.4067,0.4085,0.4261,0.4165,0.4175,0.4182,0.4187,0.453,0.4532,0,0,0,0,0,0,0.4017,0.4005,0.4004,0.3999,0.3984,0.3934,0.3928,0.3941,0.4005,0.401,0.3895,0.389,0.4049,0.4072,0.4094,0.4194,0.4177,0.4188,0.4194,0.4527,0.453,0.4533,0,0,0,0,0,0,0.4018,0.4019,0.4007,0.3998,0.3993,0.3937,0.3951,0.3941,0.3922,0.399,0.4001,0.3885,0.4048,0.4078,0.4182,0.4205,0.4193,0.4203,0.4525,0.4528,0.4531,0.4417,0,0,0,0,0,0,0.4019,0.4021,0.4044,0.4,0.3994,0.3991,0.3953,0.394,0.3919,0.3911,0.3989,0.4007,0.4049,0.4164,0.4193,0.422,0.4212,0.4522,0.4526,0.453,0.4418,0.4416,0.4415,0,0,0,0,0,0.4019,0.4057,0.4047,0.4046,0.4026,0.3991,0.3983,0.3937,0.392,0.3914,0.3962,0.4005,0.4212,0.4175,0.4209,0.4239,0.452,0.4525,0.453,0.4419,0.4417,0.4415,0,0,0,0,0,0,0.408,0.4052,0.4038,0.407,0.403,0.3976,0.3971,0.3944,0.397,0.3968,0.4036,0.406,0.4161,0.4234,0.4191,0.4356,0.4376,0.4387,0.428,0.4279,0.4277,0.4241,0.4222,0,0,0,0,0,0.4105,0.4117,0.4075,0.4098,0.4079,0.4029,0.4013,0.3972,0.398,0.3982,0.4036,0.4118,0.4213,0.4265,0.4356,0.4458,0.4476,0.4505,0.4503,0.45,0.4497,0.4544,0.4544,0.4549,0.4549,0.4549,0,0,0.4128,0.412,0.4124,0.411,0.4075,0.4039,0.4014,0.3978,0.3956,0.4022,0.4044,0.4123,0.4241,0.4325,0.438,0.4385,0.4502,0.4507,0.4503,0.4502,0.4549,0.4547,0.4546,0.4553,0.4552,0.4552,0,0,0.4145,0.4177,0.4162,0.4135,0.4082,0.4055,0.4047,0.3995,0.3981,0.4015,0.4059,0.4144,0.4278,0.4343,0.4405,0.447,0.4493,0.4511,0.447,0.4514,0.4512,0.4511,0.4479,0.4476,0.4506,0.4506,0.4505,0,0.4171,0.415,0.4152,0.412,0.4091,0.4063,0.4016,0.4013,0.4002,0.4013,0.4016,0.4192,0.4285,0.4397,0.4397,0.4464,0.4458,0.4452,0.4504,0.4504,0.4504,0.4472,0.447,0.4501,0.4501,0.4502,0.4502,0,0.4142,0.4129,0.412,0.4073,0.4058,0.4017,0.3997,0.3995,0.3992,0.3988,0.4078,0.4184,0.4276,0.4334,0.4382,0.4452,0.4432,0.4487,0.4485,0.4495,0.4462,0.4462,0.4494,0.4495,0.4497,0.4498,0,0,0.4152,0.4105,0.4093,0.4047,0.4019,0.3986,0.3993,0.3975,0.396,0.401,0.4016,0.418,0.4211,0.4286,0.4366,0.4413,0.4395,0.4433,0.4437,0.4356,0.4418,0.4121,0.4092,0.444,0.4441,0.4442,0.437,0,0.4101,0.403,0.403,0.3955,0.3903,0.3911,0.3911,0.3912,0.3929,0.3941,0.4064,0.4112,0.4202,0.4225,0.4293,0.4388,0.4399,0.4405,0.4461,0.4461,0.4161,0.4085,0.3916,0.3814,0.437,0.437,0.437,0,0.402,0.3991,0.3909,0.3858,0.3838,0.3807,0.3786,0.3781,0.3833,0.3849,0.3931,0.4002,0.4107,0.4161,0.4301,0.429,0.4331,0.4394,0.4394,0.4158,0.4164,0.3914,0.3793,0.3763,0.437,0.437,0.437,0,0.3945,0.3884,0.3817,0.3797,0.3761,0.3735,0.372,0.3745,0.3727,0.3775,0.3767,0.3911,0.3938,0.4072,0.4165,0.4234,0.4258,0.4383,0.4152,0.4131,0.402,0.3984,0.3842,0.4441,0.4441,0.4441,0.4441,0,0.3857,0.3788,0.3768,0.3723,0.3636,0.3652,0.3576,0.3588,0.3605,0.3572,0.37,0.3692,0.391,0.3949,0.4092,0.4048,0.4192,0.4096,0.4083,0.3967,0.3929,0.3927,0.3898,0.4438,0.4439,0.4439,0.444,0,0.3733,0.3732,0.3635,0.3601,0.358,0.3509,0.3453,0.3408,0.3445,0.3405,0.3408,0.3498,0.3518,0.3665,0.3817,0.3868,0.3784,0.3871,0.3652,0.361,0.3357,0.3327,0.2994,0.2941,0.3631,0.3623,0.3616,0,0.3646,0.3589,0.3525,0.346,0.3424,0.3342,0.3282,0.3305,0.326,0.3278,0.3241,0.3233,0.3198,0.3234,0.3303,0.3368,0.3422,0.3224,0.3338,0.3238,0.3205,0.3138,0.3122,0.3162,0.3152,0.3144,0.3138,0,0.3469,0.3453,0.3395,0.3272,0.3187,0.3092,0.3016,0.2967,0.2994,0.2952,0.2867,0.2843,0.283,0.2761,0.2765,0.2848,0.3014,0.3048,0.3068,0.2862,0.2669,0.2647,0.3279,0.3066,0.3073,0.3078,0.3082,0.3085,0.3312,0.3227,0.315,0.2999,0.2944,0.2807,0.2652,0.2624,0.2506,0.2389,0.25,0.2377,0.2411,0.2377,0.2399,0.2331,0.2431,0.2387,0.237,0.2326,0.2195,0.256,0.2246,0.2249,0.2251,0.2253,0.2254,0,0.3007,0.2946,0.2854,0.267,0.2528,0.2559,0.2426,0.2263,0.2056,0.2067,0.1953,0.1892,0.182,0.1901,0.1872,0.1774,0.1828,0.1732,0.1743,0.1787,0.2242,0.2148,0.1647,0.1647,0.1647,0.1647,0.1647,0.1647,0.2833,0.2647,0.2592,0.2269,0.2157,0.1905,0.1778,0.1636,0.1594,0.1418,0.1352,0.1391,0.154,0.1462,0.1418,0.1405,0.1417,0.1165,0.1289,0.1764,0.1833,0.1898,0.1811,0.1247,0.1246,0.0855,0.0851,0.0848]},{"header":{"parameterUnit":"m.s-1","parameterCategory":2,"la1":30.2991,"la2":30.254,"lo1":-89.0895,"lo2":-89.0444,"dy":0.0017,"dx":0.0017,"nx":28,"ny":28,"refTime":"2023-08-10T09:00:00:Z","depth":"0","parameterNumber":3,"parameterNumberName":"V-component_of_CURRENTS"},"data":[0,0,0,0,0,0,0,0,0,0,0,0,0,0,0,0,0,0,0,0,0,0,0,0,0,0,0,0,0,0,0,0,0,0,0,0,0,0,0,0,0,0,0,0,0,0,0,0,0,0,0,0,0,0,0,0,0,0,0.0691,0.0693,0,0.0876,0.0879,0.0882,0.0945,0.0943,0.0942,0.0941,0.1294,0.1304,0.1315,0,0,0,0,0,0,0,0,0,0,0,0,0,0.0486,0.0489,0.0691,0.0693,0.0695,0.0876,0.0879,0.0882,0.0945,0.0943,0.0942,0.094,0.129,0.1303,0.1316,0,0,0,0,0,0,0,0,0,0,0,0,0,0.0619,0.049,0.0691,0.0743,0.0749,0.0875,0.0879,0.0883,0.0945,0.0943,0.0941,0.094,0.1286,0.1302,0.1317,0.1455,0,0,0.1366,0.1373,0,0,0,0,0,0,0,0,0.0611,0.0627,0.0734,0.074,0.0747,0.088,0.0936,0.1081,0.0946,0.0877,0.0941,0.0939,0.1169,0.1194,0.124,0.1472,0.1487,0.1367,0.1377,0.1384,0.1388,0,0,0,0,0,0,0,0.0602,0.062,0.0771,0.0736,0.0744,0.0789,0.0806,0.0964,0.104,0.0883,0.0887,0.0898,0.1174,0.1224,0.1249,0.1492,0.1367,0.1381,0.1391,0.1397,0.1784,0.1785,0,0,0,0,0,0,0.0565,0.0611,0.0765,0.0776,0.0666,0.0794,0.0813,0.0844,0.1035,0.1058,0.09,0.09,0.1198,0.123,0.1262,0.1422,0.1384,0.1399,0.1408,0.1784,0.1784,0.1785,0,0,0,0,0,0,0.056,0.0577,0.0757,0.0691,0.0716,0.0798,0.0834,0.0849,0.0896,0.1044,0.1072,0.0929,0.1197,0.1239,0.1416,0.1436,0.1406,0.142,0.1783,0.1784,0.1785,0.1752,0,0,0,0,0,0,0.0554,0.0575,0.06,0.0689,0.0718,0.0852,0.0836,0.0854,0.0903,0.0906,0.108,0.111,0.1199,0.1392,0.1432,0.1457,0.1433,0.1782,0.1783,0.1785,0.1752,0.1752,0.1752,0,0,0,0,0,0.0546,0.0599,0.0601,0.062,0.0746,0.0854,0.0876,0.093,0.0906,0.0958,0.1062,0.1104,0.1425,0.1409,0.1455,0.1484,0.1781,0.1783,0.1784,0.1752,0.1752,0.1752,0,0,0,0,0,0,0.0511,0.0612,0.0616,0.0691,0.0767,0.0862,0.0913,0.0932,0.1052,0.1051,0.1165,0.1208,0.1354,0.143,0.1406,0.159,0.1592,0.1603,0.1551,0.1552,0.1552,0.1514,0.1446,0,0,0,0,0,0.0513,0.0591,0.0668,0.0729,0.0762,0.083,0.0878,0.0911,0.1014,0.106,0.1175,0.1285,0.14,0.1483,0.1604,0.175,0.1734,0.1779,0.1778,0.1778,0.1774,0.1746,0.1741,0.1791,0.1791,0.1791,0,0,0.0505,0.0579,0.0613,0.0728,0.0785,0.0871,0.0858,0.0936,0.1007,0.109,0.1236,0.1311,0.1438,0.1577,0.1645,0.1647,0.1755,0.178,0.1779,0.1775,0.1747,0.1741,0.1737,0.1792,0.1792,0.1791,0,0,0.0548,0.0599,0.0675,0.0751,0.0844,0.0902,0.0918,0.1018,0.106,0.1209,0.125,0.1333,0.1552,0.1616,0.168,0.1757,0.1752,0.178,0.1769,0.1741,0.1736,0.1731,0.1694,0.1686,0.1782,0.1782,0.1782,0,0.0536,0.0644,0.0711,0.0807,0.0869,0.0912,0.0993,0.1065,0.1208,0.1241,0.1256,0.146,0.1564,0.168,0.1691,0.1758,0.1727,0.1763,0.1737,0.1732,0.1728,0.1691,0.1683,0.178,0.1781,0.1781,0.1781,0,0.0635,0.0724,0.0776,0.0915,0.0992,0.1076,0.116,0.123,0.1269,0.1317,0.1422,0.1533,0.1632,0.1664,0.1721,0.1739,0.1722,0.1732,0.1728,0.172,0.1683,0.1674,0.1778,0.1779,0.1779,0.178,0,0,0.0617,0.0807,0.0823,0.0897,0.1053,0.1123,0.1233,0.1334,0.1365,0.1466,0.1508,0.1654,0.1634,0.1699,0.1738,0.172,0.1664,0.1706,0.1705,0.1652,0.1578,0.1549,0.1538,0.1653,0.1652,0.1651,0.1559,0,0.0675,0.0837,0.093,0.1084,0.1175,0.1254,0.1352,0.1434,0.1488,0.1546,0.1581,0.1651,0.167,0.1686,0.1673,0.1679,0.1643,0.1687,0.161,0.1607,0.1569,0.1528,0.1496,0.1409,0.1551,0.1549,0.1548,0,0.0756,0.0857,0.0993,0.1163,0.1202,0.1287,0.1398,0.1491,0.156,0.1586,0.1615,0.1639,0.166,0.1651,0.1619,0.1638,0.1598,0.158,0.1576,0.1556,0.1564,0.1445,0.1389,0.1456,0.1536,0.1537,0.1538,0,0.0728,0.0915,0.1013,0.1079,0.1261,0.1309,0.1389,0.1479,0.1527,0.1576,0.158,0.1615,0.1611,0.1577,0.1555,0.1571,0.1482,0.1508,0.1441,0.1438,0.1401,0.1397,0.1387,0.1444,0.1444,0.1445,0.1445,0,0.0793,0.0882,0.0992,0.1062,0.1146,0.1275,0.1344,0.1418,0.1484,0.1509,0.1566,0.1562,0.158,0.155,0.1527,0.1452,0.1456,0.142,0.1407,0.139,0.1386,0.1437,0.146,0.1441,0.1442,0.1443,0.1443,0,0.0787,0.087,0.0989,0.1122,0.115,0.12,0.1308,0.1343,0.1411,0.1435,0.1442,0.1497,0.1459,0.1467,0.1413,0.1403,0.136,0.1316,0.1293,0.1279,0.1297,0.1318,0.1223,0.1306,0.123,0.1229,0.1228,0,0.0815,0.0866,0.0977,0.1001,0.106,0.113,0.1168,0.1279,0.1308,0.138,0.1375,0.1372,0.1356,0.1293,0.1271,0.1218,0.1281,0.1165,0.1204,0.1276,0.129,0.1292,0.1372,0.1136,0.1134,0.1133,0.1132,0,0.0841,0.0854,0.0922,0.095,0.0986,0.1043,0.1102,0.1109,0.1217,0.1229,0.1232,0.1228,0.1205,0.1158,0.1126,0.1102,0.121,0.1133,0.1211,0.1209,0.1203,0.1286,0.1223,0.1119,0.112,0.1121,0.1122,0.1122,0.082,0.0835,0.0875,0.0895,0.0927,0.0942,0.0934,0.099,0.1009,0.1026,0.1079,0.1082,0.1123,0.1079,0.1042,0.1055,0.1091,0.1086,0.1099,0.1091,0.1187,0.1092,0.0981,0.0981,0.0981,0.0982,0.0982,0,0.0777,0.079,0.0814,0.0831,0.081,0.0857,0.0878,0.0851,0.0814,0.0906,0.0907,0.1017,0.0989,0.1033,0.1034,0.1044,0.1084,0.1082,0.1103,0.1192,0.1099,0.1118,0.1027,0.1027,0.1027,0.1027,0.1027,0.1027,0.0761,0.0741,0.0743,0.0693,0.0691,0.0638,0.0616,0.0605,0.0664,0.0728,0.0836,0.0963,0.1189,0.1067,0.1099,0.1099,0.1229,0.1117,0.126,0.1218,0.1222,0.1225,0.1253,0.1192,0.1192,0.1373,0.1374,0.1375]}],[{"header":{"parameterUnit":"m.s-1","parameterCategory":2,"la1":30.2991,"la2":30.254,"lo1":-89.0895,"lo2":-89.0444,"dy":0.0017,"dx":0.0017,"nx":28,"ny":28,"refTime":"2023-08-10T09:00:00:Z","depth":"2","parameterNumber":2,"parameterNumberName":"U-component_of_CURRENTS"},"data":[0,0,0,0,0,0,0,0,0,0,0,0,0,0,0,0,0,0,0,0,0,0,0,0,0,0,0,0,0,0,0,0,0,0,0,0,0,0,0,0,0,0,0,0,0,0,0,0,0,0,0,0,0,0,0,0,0,0,0.2577,0.2579,0,0.2651,0.265,0.2649,0.2608,0.2608,0.2608,0.2607,0.2903,0.2911,0.2919,0,0,0,0,0,0,0,0,0,0,0,0,0,0.2192,0.2198,0.2576,0.2579,0.2582,0.2651,0.265,0.2649,0.2608,0.2608,0.2608,0.2607,0.2901,0.291,0.292,0,0,0,0,0,0,0,0,0,0,0,0,0,0.2304,0.2201,0.2576,0.2584,0.2587,0.2651,0.265,0.2649,0.2608,0.2608,0.2608,0.2607,0.2897,0.2909,0.2921,0.3005,0,0,0.2959,0.2964,0,0,0,0,0,0,0,0,0.2298,0.2315,0.258,0.2584,0.2587,0.2637,0.2624,0.2786,0.2608,0.258,0.2607,0.2607,0.2848,0.2864,0.2848,0.3019,0.3032,0.296,0.2967,0.2972,0.2976,0,0,0,0,0,0,0,0.229,0.2311,0.2586,0.2583,0.2588,0.2514,0.2529,0.2651,0.2704,0.2582,0.2584,0.2623,0.2848,0.2836,0.2856,0.3036,0.2959,0.297,0.2978,0.2983,0.3371,0.3373,0,0,0,0,0,0,0.2333,0.2306,0.2584,0.2591,0.246,0.2524,0.254,0.2605,0.2698,0.2716,0.2624,0.2622,0.2815,0.2842,0.2867,0.3059,0.2972,0.2984,0.2991,0.3368,0.3371,0.3375,0,0,0,0,0,0,0.2325,0.2358,0.2582,0.2462,0.2488,0.2534,0.2606,0.2608,0.2618,0.2731,0.2748,0.2638,0.2816,0.285,0.3051,0.3067,0.2989,0.3,0.3364,0.3369,0.3373,0.339,0,0,0,0,0,0,0.2313,0.2355,0.233,0.2467,0.2498,0.2675,0.2609,0.261,0.2652,0.2649,0.2751,0.2774,0.2818,0.3033,0.3063,0.3083,0.301,0.336,0.3366,0.3372,0.3385,0.3394,0.3402,0,0,0,0,0,0.23,0.2321,0.2329,0.2359,0.2493,0.2681,0.2689,0.2702,0.2653,0.2696,0.2781,0.2772,0.3085,0.3048,0.3082,0.3105,0.3358,0.3365,0.3371,0.3382,0.3392,0.3401,0,0,0,0,0,0,0.223,0.2325,0.2336,0.2407,0.2553,0.2683,0.2713,0.2718,0.28,0.2792,0.2861,0.2897,0.3061,0.3105,0.306,0.3232,0.3201,0.3215,0.3197,0.3208,0.3216,0.3196,0.302,0,0,0,0,0,0.2189,0.2211,0.2356,0.2453,0.2512,0.2604,0.2647,0.2684,0.281,0.2835,0.2909,0.2994,0.3108,0.318,0.3284,0.3417,0.3398,0.3439,0.3447,0.3454,0.3462,0.3476,0.3484,0.3397,0.3397,0.3396,0,0,0.2237,0.2272,0.2309,0.2431,0.2535,0.2617,0.2629,0.2759,0.2814,0.287,0.2963,0.3049,0.3157,0.3291,0.3361,0.3336,0.3464,0.3462,0.3467,0.3472,0.3483,0.3491,0.3498,0.3401,0.34,0.34,0,0,0.2357,0.2359,0.2404,0.2463,0.2589,0.2649,0.2698,0.2828,0.2866,0.3011,0.3036,0.3147,0.3321,0.3376,0.3433,0.3559,0.3515,0.3578,0.3602,0.3615,0.3621,0.3626,0.3574,0.3574,0.3571,0.3571,0.3571,0,0.2391,0.2441,0.2476,0.2511,0.2556,0.267,0.2753,0.282,0.2989,0.304,0.306,0.3259,0.3347,0.348,0.3522,0.3571,0.3558,0.355,0.362,0.3625,0.363,0.3576,0.3576,0.3573,0.3572,0.3572,0.3572,0,0.2534,0.252,0.2592,0.2628,0.2689,0.2807,0.2906,0.2978,0.303,0.3081,0.3241,0.3362,0.3477,0.3504,0.3572,0.365,0.3619,0.363,0.3579,0.3639,0.3578,0.3578,0.3575,0.3574,0.3574,0.3573,0,0,0.2762,0.2687,0.2701,0.2679,0.2726,0.2837,0.2921,0.3055,0.3105,0.3226,0.3289,0.3484,0.3521,0.359,0.3654,0.3669,0.3687,0.3677,0.3676,0.3595,0.3674,0.3301,0.3264,0.3713,0.3714,0.3715,0.3601,0,0.288,0.2896,0.2828,0.2894,0.2925,0.2942,0.3016,0.3111,0.3199,0.3275,0.3376,0.3478,0.3563,0.3615,0.3663,0.3691,0.3696,0.3714,0.3656,0.3653,0.3289,0.3255,0.3163,0.3023,0.3601,0.3601,0.3601,0,0.3016,0.2978,0.3025,0.2954,0.2984,0.3033,0.3133,0.318,0.3273,0.3343,0.3437,0.35,0.3592,0.3623,0.37,0.3713,0.3716,0.3705,0.37,0.3347,0.3278,0.307,0.3001,0.3599,0.36,0.36,0.36,0,0.3145,0.3106,0.3131,0.3111,0.3085,0.3131,0.3137,0.322,0.324,0.3346,0.3368,0.3508,0.3527,0.3603,0.3608,0.3677,0.3592,0.3675,0.3331,0.3304,0.3206,0.3163,0.3699,0.3699,0.3699,0.37,0.37,0,0.3231,0.3241,0.3191,0.3191,0.3207,0.3184,0.3219,0.3258,0.3284,0.3265,0.3392,0.3388,0.3524,0.3493,0.3558,0.3378,0.3558,0.33,0.324,0.3199,0.316,0.3667,0.3665,0.3695,0.3696,0.3697,0.3698,0,0.3309,0.3297,0.3275,0.3253,0.3244,0.324,0.3163,0.3166,0.3233,0.3195,0.3214,0.327,0.3187,0.323,0.3244,0.3214,0.314,0.3035,0.2915,0.2837,0.2874,0.2876,0.2675,0.2661,0.2649,0.2639,0.263,0,0.3323,0.3331,0.3281,0.3227,0.3198,0.3163,0.3114,0.3138,0.3096,0.3092,0.3043,0.2965,0.2873,0.2683,0.261,0.2525,0.2729,0.233,0.2428,0.2801,0.2767,0.2788,0.2805,0.2339,0.2329,0.232,0.2314,0,0.3272,0.3284,0.3236,0.3129,0.3079,0.2973,0.2902,0.2876,0.2867,0.2834,0.2698,0.2618,0.2429,0.2206,0.2015,0.1999,0.2338,0.2137,0.2602,0.2539,0.2453,0.2429,0.2465,0.2239,0.2247,0.2252,0.2256,0.2259,0.3185,0.3118,0.3046,0.2916,0.2866,0.2727,0.2574,0.2527,0.2392,0.2246,0.2298,0.2078,0.2061,0.1617,0.1563,0.1521,0.168,0.1715,0.1758,0.1806,0.1713,0.1603,0.1212,0.1213,0.1214,0.1215,0.1216,0,0.292,0.2862,0.2783,0.2607,0.2455,0.2497,0.2354,0.2168,0.1923,0.1884,0.1718,0.1436,0.1271,0.1275,0.1118,0.1073,0.1286,0.1038,0.1388,0.1456,0.1518,0.143,0.0844,0.0843,0.0842,0.0841,0,0,0.276,0.2585,0.2529,0.2198,0.2088,0.1836,0.17,0.1518,0.1427,0.1173,0.1038,0.1059,0.1149,0.0916,0.0931,0.0869,0.1172,0.0842,0.1139,0.1614,0.1676,0.1889,0.1817,0,0,0,0,0]},{"header":{"parameterUnit":"m.s-1","parameterCategory":2,"la1":30.2991,"la2":30.254,"lo1":-89.0895,"lo2":-89.0444,"dy":0.0017,"dx":0.0017,"nx":28,"ny":28,"refTime":"2023-08-10T09:00:00:Z","depth":"2","parameterNumber":3,"parameterNumberName":"V-component_of_CURRENTS"},"data":[0,0,0,0,0,0,0,0,0,0,0,0,0,0,0,0,0,0,0,0,0,0,0,0,0,0,0,0,0,0,0,0,0,0,0,0,0,0,0,0,0,0,0,0,0,0,0,0,0,0,0,0,0,0,0,0,0,0,-0.0196,-0.0194,0,0.0009,0.0011,0.0013,0.0061,0.006,0.0059,0.0057,0.0118,0.0121,0.0123,0,0,0,0,0,0,0,0,0,0,0,0,0,-0.0514,-0.0509,-0.0196,-0.0193,-0.0191,0.0009,0.0011,0.0014,0.0061,0.006,0.0058,0.0057,0.0117,0.012,0.0124,0,0,0,0,0,0,0,0,0,0,0,0,0,-0.0351,-0.0507,-0.0197,-0.0141,-0.0134,0.0008,0.0011,0.0014,0.0061,0.006,0.0058,0.0056,0.0116,0.012,0.0124,0.0185,0,0,0.0137,0.0138,0,0,0,0,0,0,0,0,-0.0361,-0.034,-0.0152,-0.0145,-0.0136,0.001,-0.0078,0.0065,0.0062,-0.0015,0.0057,0.0055,0.0071,0.0079,0.012,0.0188,0.0191,0.0137,0.0139,0.0141,0.0142,0,0,0,0,0,0,0,-0.0372,-0.0348,-0.0117,-0.0149,-0.0139,-0.0115,-0.0095,-0.005,0.0031,-0.0009,-0.0004,0.0023,0.0074,0.0116,0.0122,0.0191,0.0137,0.014,0.0143,0.0145,0.0348,0.035,0,0,0,0,0,0,-0.0391,-0.0358,-0.0124,-0.0111,-0.0253,-0.0108,-0.0085,-0.0037,0.0034,0.0045,0.0024,0.0025,0.011,0.0117,0.0124,0.0257,0.0141,0.0145,0.0147,0.0345,0.0348,0.0351,0,0,0,0,0,0,-0.0398,-0.0371,-0.0132,-0.023,-0.0198,-0.0101,-0.0047,-0.0032,0.0011,0.0061,0.0068,0.0052,0.0109,0.0118,0.0223,0.0257,0.0147,0.0151,0.0341,0.0346,0.035,0.0486,0,0,0,0,0,0,-0.0408,-0.0375,-0.0397,-0.023,-0.0193,-0.0046,-0.0045,-0.0027,0.0032,0.0034,0.0087,0.0091,0.0108,0.0218,0.0227,0.026,0.0154,0.0337,0.0343,0.0348,0.0478,0.0494,0.0509,0,0,0,0,0,-0.042,-0.0406,-0.0399,-0.0373,-0.0209,-0.0044,-0.0022,0.0037,0.0034,0.0066,0.0141,0.009,0.0256,0.0226,0.0236,0.027,0.0335,0.0342,0.0348,0.0471,0.0491,0.0508,0,0,0,0,0,0,-0.054,-0.0394,-0.0384,-0.0327,-0.0206,-0.0035,-0.0005,0.0043,0.0128,0.0127,0.0161,0.0175,0.027,0.026,0.0225,0.0343,0.0273,0.0282,0.0362,0.0382,0.0397,0.0372,0.0157,0,0,0,0,0,-0.0581,-0.0528,-0.0383,-0.0327,-0.0273,-0.0144,-0.009,-0.0026,0.0093,0.0127,0.0192,0.0244,0.0308,0.0337,0.039,0.0471,0.0418,0.0488,0.0504,0.0517,0.0504,0.0454,0.0462,0.0373,0.0373,0.0373,0,0,-0.0595,-0.0518,-0.0484,-0.0351,-0.0252,-0.0126,-0.0114,0.0006,0.0121,0.0119,0.028,0.0309,0.0345,0.0452,0.0486,0.0445,0.0529,0.0525,0.0537,0.0516,0.0461,0.0469,0.0476,0.0378,0.0377,0.0376,0,0,-0.0543,-0.0534,-0.0458,-0.0366,-0.0228,-0.013,-0.0095,0.0086,0.0156,0.0324,0.0341,0.0389,0.0528,0.0545,0.0571,0.0694,0.0618,0.071,0.0767,0.0721,0.0726,0.073,0.0726,0.0728,0.0711,0.0711,0.0711,0,-0.0585,-0.0463,-0.0408,-0.0303,-0.0221,-0.0123,0.0004,0.0113,0.0311,0.0363,0.0387,0.0543,0.0564,0.0645,0.0708,0.0721,0.0707,0.0697,0.0737,0.074,0.0741,0.0735,0.0735,0.0718,0.0718,0.0717,0.0716,0,-0.0435,-0.0374,-0.0306,-0.0146,-0.0059,0.007,0.0223,0.0329,0.0422,0.0506,0.0623,0.068,0.0749,0.0766,0.0798,0.0826,0.082,0.0766,0.0682,0.0758,0.0748,0.0746,0.0729,0.0726,0.0724,0.0722,0,0,-0.0401,-0.0243,-0.021,-0.0143,0.0024,0.0144,0.0308,0.0474,0.0572,0.0695,0.0789,0.0897,0.0877,0.0902,0.0908,0.0876,0.0904,0.0851,0.0845,0.0834,0.0849,0.0817,0.0812,0.0867,0.0867,0.0866,0.0855,0,-0.029,-0.0093,-0.0039,0.0157,0.0266,0.0351,0.0509,0.0641,0.0746,0.0856,0.0852,0.0948,0.0947,0.0981,0.0957,0.0911,0.0899,0.0914,0.0786,0.0782,0.0732,0.0807,0.074,0.072,0.0852,0.0852,0.0852,0,-0.0137,-0.004,0.0171,0.0299,0.0358,0.0493,0.0693,0.0811,0.0924,0.1005,0.1036,0.1043,0.1051,0.1019,0.0968,0.0991,0.0946,0.089,0.0886,0.0794,0.0745,0.0656,0.0711,0.0847,0.0848,0.0848,0.0848,0,-0.0064,0.0102,0.0272,0.0333,0.052,0.0624,0.0703,0.0852,0.094,0.1046,0.1095,0.1117,0.1106,0.1056,0.099,0.099,0.0894,0.0858,0.0786,0.0785,0.0664,0.0652,0.0799,0.0799,0.0799,0.08,0.08,0,0.0047,0.0197,0.0321,0.0433,0.0595,0.0672,0.0834,0.0938,0.103,0.1082,0.1135,0.1164,0.111,0.1057,0.1005,0.0904,0.0909,0.0806,0.0772,0.0719,0.0713,0.0752,0.0747,0.0799,0.0799,0.0799,0.0799,0,0.0178,0.0273,0.0446,0.0607,0.0654,0.0762,0.0872,0.0951,0.1061,0.1115,0.1141,0.1181,0.1117,0.1064,0.0952,0.0903,0.0815,0.0773,0.0745,0.0707,0.0743,0.0746,0.0702,0.0701,0.0699,0.0699,0.0698,0,0.0307,0.0403,0.0552,0.0599,0.0689,0.0808,0.0875,0.0983,0.1025,0.1106,0.1105,0.1088,0.106,0.0931,0.0831,0.0746,0.0763,0.0645,0.0609,0.0758,0.073,0.0734,0.0738,0.0531,0.0529,0.0528,0.0526,0,0.0468,0.0514,0.0608,0.0678,0.0756,0.0822,0.0889,0.0933,0.1007,0.1049,0.1033,0.1004,0.0915,0.0774,0.0696,0.0633,0.0662,0.0606,0.074,0.0567,0.0595,0.0568,0.0578,0.0511,0.0512,0.0513,0.0514,0.0515,0.0559,0.0605,0.0652,0.0719,0.0766,0.0786,0.0787,0.0829,0.085,0.0852,0.0878,0.0818,0.0779,0.0601,0.0551,0.0511,0.0522,0.0488,0.0494,0.0501,0.0483,0.0508,0.0407,0.0408,0.0409,0.0409,0.041,0,0.0589,0.0606,0.066,0.0692,0.0672,0.0731,0.0754,0.071,0.0654,0.0712,0.0683,0.0568,0.05,0.0492,0.0387,0.0354,0.0369,0.0358,0.0365,0.0378,0.039,0.0368,0.026,0.0261,0.0261,0.0261,0,0,0.0592,0.06,0.0602,0.0566,0.0573,0.0524,0.0498,0.0455,0.0473,0.0415,0.0413,0.0482,0.048,0.038,0.0334,0.0288,0.0352,0.0288,0.0397,0.0419,0.0432,0.0438,0.0415,0,0,0,0,0]}],[{"header":{"parameterUnit":"m.s-1","parameterCategory":2,"la1":30.2991,"la2":30.254,"lo1":-89.0895,"lo2":-89.0444,"dy":0.0017,"dx":0.0017,"nx":28,"ny":28,"refTime":"2023-08-10T09:00:00:Z","depth":"4","parameterNumber":2,"parameterNumberName":"U-component_of_CURRENTS"},"data":[0,0,0,0,0,0,0,0,0,0,0,0,0,0,0,0,0,0,0,0,0,0,0,0,0,0,0,0,0,0,0,0,0,0,0,0,0,0,0,0,0,0,0,0,0,0,0,0,0,0,0,0,0,0,0,0,0,0,-0.032,-0.0319,0,-0.0135,-0.0132,-0.013,-0.0007,-0.0007,-0.0006,-0.0005,0.0102,0.0105,0.0107,0,0,0,0,0,0,0,0,0,0,0,0,0,-0.0411,-0.0411,-0.032,-0.0318,-0.0316,-0.0135,-0.0132,-0.0129,-0.0007,-0.0007,-0.0006,-0.0005,0.0102,0.0104,0.0107,0,0,0,0,0,0,0,0,0,0,0,0,0,-0.0311,-0.0411,-0.0321,-0.0235,-0.0226,-0.0136,-0.0132,-0.0129,-0.0007,-0.0007,-0.0006,-0.0005,0.0101,0.0104,0.0108,0.0112,0,0,0.0118,0.012,0,0,0,0,0,0,0,0,-0.0317,-0.0308,-0.025,-0.0241,-0.0231,-0.0095,-0.0124,-0.0053,-0.0008,-0.0088,-0.0005,-0.0004,0.0027,0.0036,0.0074,0.0117,0.0121,0.0119,0.0121,0.0122,0.0123,0,0,0,0,0,0,0,-0.0325,-0.0314,-0.0244,-0.0248,-0.0236,-0.0152,-0.0138,-0.0109,-0.0037,-0.0081,-0.0072,-0.0056,0.0032,0.0071,0.0077,0.0123,0.0118,0.0122,0.0124,0.0125,0.0128,0.0127,0,0,0,0,0,0,-0.0362,-0.0322,-0.025,-0.0239,-0.0276,-0.0152,-0.0136,-0.0138,-0.0035,-0.0019,-0.0057,-0.0051,0.0064,0.0073,0.0081,0.0114,0.0122,0.0125,0.0127,0.013,0.0128,0.0126,0,0,0,0,0,0,-0.0365,-0.0358,-0.0258,-0.0277,-0.0258,-0.0153,-0.0154,-0.0134,-0.0011,-0.0017,-0.0001,0.0055,0.0065,0.0076,0.016,0.0118,0.0127,0.013,0.0133,0.013,0.0127,0.0164,0,0,0,0,0,0,-0.0369,-0.0361,-0.0342,-0.028,-0.0259,-0.0147,-0.0155,-0.0132,-0.0009,0.0003,0.0082,0.0089,0.0067,0.0155,0.0163,0.0123,0.0133,0.0135,0.0131,0.0128,0.0166,0.0163,0.0161,0,0,0,0,0,-0.0373,-0.0348,-0.0343,-0.0332,-0.0249,-0.0144,-0.0121,-0.0043,-0.0004,0.007,0.0106,0.0091,0.0132,0.016,0.0169,0.0128,0.0137,0.0133,0.0128,0.0167,0.0164,0.0161,0,0,0,0,0,0,-0.037,-0.0332,-0.0325,-0.0289,-0.0202,-0.0123,-0.0042,0.0012,0.0107,0.0135,0.0129,0.0139,0.0172,0.0157,0.0187,0.0105,0.0106,0.0104,0.0131,0.0129,0.0126,0.0048,0.0136,0,0,0,0,0,-0.037,-0.0335,-0.0282,-0.0237,-0.0191,-0.0099,-0.0033,0.0029,0.0101,0.0152,0.0199,0.0195,0.0145,0.0157,0.0148,0.016,0.008,0.0112,0.011,0.0108,0.0043,-0.0149,-0.0176,0.0111,0.0111,0.0111,0,0,-0.0365,-0.0327,-0.0313,-0.0231,-0.0154,-0.0088,-0.0051,0.0083,0.0107,0.0141,0.0232,0.0232,0.0153,0.0135,0.0141,0.0132,0.0014,0.0102,0.0102,0.0036,-0.0157,-0.0185,-0.021,0.0108,0.0109,0.0109,0,0,-0.0312,-0.0286,-0.0231,-0.016,-0.0034,-0.0001,0.0055,0.0181,0.0212,0.0303,0.026,0.0211,0.0285,0.0123,0.0057,0.0028,0.0019,0.0078,-0.0001,-0.0184,-0.021,-0.0235,-0.0242,-0.0268,0.0062,0.0062,0.0062,0,-0.0298,-0.0241,-0.0187,-0.0103,-0.0056,0.004,0.0111,0.014,0.0275,0.0224,0.0342,0.0222,0.0206,-0.003,-0.002,0.0006,0.001,0.0032,-0.0189,-0.0216,-0.0242,-0.0245,-0.0274,0.0063,0.0063,0.0063,0.0062,0,-0.0211,-0.015,-0.0091,-0.0003,0.0055,0.0159,0.0176,0.0225,0.0287,0.026,0.0162,0.0126,0.0024,-0.0002,0.0013,-0.0216,-0.0107,-0.0151,-0.0178,-0.0269,-0.0264,-0.0295,0.0065,0.0064,0.0064,0.0064,0,0,-0.0214,-0.007,-0.0042,-0.0,0.012,0.0171,0.016,0.0117,0.004,0.011,-0.0035,-0.0134,-0.0138,-0.0222,-0.0256,-0.0416,-0.0521,-0.0303,-0.0313,-0.0301,-0.0744,-0.0413,-0.0414,-0.0544,-0.0552,-0.0559,-0.0618,0,-0.0149,-0.0014,0.0028,0.0127,0.0192,0.0202,0.0155,0.0106,0.0066,-0.0042,-0.0223,-0.0297,-0.0235,-0.0236,-0.0403,-0.0508,-0.0617,-0.0491,-0.0671,-0.0676,-0.0369,-0.045,-0.0585,-0.0642,-0.0649,-0.0654,-0.0658,0,-0.0076,0.0001,0.0111,0.014,0.0161,0.021,0.0099,0.0086,-0.0135,-0.0173,-0.0338,-0.04,-0.0624,-0.0525,-0.0809,-0.0679,-0.0691,-0.0775,-0.0781,-0.0538,-0.041,-0.057,-0.0715,-0.071,-0.0706,-0.0702,-0.0699,0,-0.0092,0.004,0.0117,0.0157,0.0204,0.0199,0.0212,0.0048,-0.0031,-0.0225,-0.0301,-0.0567,-0.0637,-0.0801,-0.0836,-0.0801,-0.1109,-0.1122,-0.0868,-0.0838,-0.1134,-0.1109,-0.1357,-0.1357,-0.1357,-0.1357,-0.1357,0,-0.0053,0.001,0.0134,0.0188,0.0213,0.0242,0.0193,0.0124,-0.0034,-0.0176,-0.031,-0.0452,-0.0693,-0.0853,-0.0908,-0.0918,-0.1155,-0.0905,-0.0879,-0.1089,-0.1061,-0.1146,-0.112,-0.1359,-0.1359,-0.1358,-0.1358,0,-0.0069,0.0026,0.0117,0.0201,0.0236,0.0273,0.0291,0.0183,0.0094,-0.0093,-0.0122,-0.0379,-0.0476,-0.0672,-0.0929,-0.0943,-0.1052,-0.099,-0.1086,-0.1059,-0.0632,-0.0605,-0.0767,-0.0757,-0.0748,-0.0741,-0.0735,0,-0.0065,-0.0007,0.0145,0.0197,0.0271,0.0337,0.0318,0.0275,0.0148,-0.0037,-0.0177,-0.0267,-0.0398,-0.0533,-0.069,-0.0767,-0.0756,-0.0819,-0.0849,-0.0637,-0.0597,-0.0582,-0.0567,-0.0721,-0.0719,-0.0717,-0.0715,0,-0.0087,-0.001,0.0054,0.0171,0.0235,0.0261,0.0254,0.0208,0.0094,-0.0012,-0.0149,-0.0189,-0.0281,-0.0393,-0.0387,-0.0483,-0.0823,-0.0731,-0.0751,-0.0779,-0.0584,-0.0549,-0.0544,-0.0685,-0.0689,-0.0692,-0.0694,0,-0.0113,-0.0074,0.0017,0.0122,0.0169,0.0177,0.0209,0.0131,0.0071,-0.0104,-0.0119,-0.0192,-0.0274,-0.0236,-0.0288,-0.0266,-0.0279,-0.0374,-0.0413,-0.0447,-0.0306,-0.0008,0.0058,0,0,0,0,0,-0.014,-0.0102,-0.0048,0.009,0.012,0.016,0.0097,0.0089,0.0023,-0.0042,-0.0058,-0.0088,-0.0049,-0.0104,-0.0009,-0.0128,-0.0295,-0.0024,-0.0429,-0.052,-0.0555,-0.0411,0,0,0,0,0,0,-0.0155,-0.0117,-0.0073,0.0005,0.01,0.0116,0.0097,0.0066,0.0021,-0.002,-0.0001,-0.0023,0.0001,-0.0035,0.0024,0.002,-0.0224,-0.0027,-0.0025,-0.0501,-0.0532,-0.0559,-0.0424,0,0,0,0,0]},{"header":{"parameterUnit":"m.s-1","parameterCategory":2,"la1":30.2991,"la2":30.254,"lo1":-89.0895,"lo2":-89.0444,"dy":0.0017,"dx":0.0017,"nx":28,"ny":28,"refTime":"2023-08-10T09:00:00:Z","depth":"4","parameterNumber":3,"parameterNumberName":"V-component_of_CURRENTS"},"data":[0,0,0,0,0,0,0,0,0,0,0,0,0,0,0,0,0,0,0,0,0,0,0,0,0,0,0,0,0,0,0,0,0,0,0,0,0,0,0,0,0,0,0,0,0,0,0,0,0,0,0,0,0,0,0,0,0,0,0.0284,0.0284,0,0.0179,0.0177,0.0175,0.0165,0.0167,0.0169,0.0171,0.0013,0.0008,0.0002,0,0,0,0,0,0,0,0,0,0,0,0,0,0.0265,0.0266,0.0284,0.0284,0.0283,0.0179,0.0177,0.0174,0.0164,0.0167,0.0169,0.0171,0.0015,0.0008,0.0001,0,0,0,0,0,0,0,0,0,0,0,0,0,0.0219,0.0266,0.0284,0.0273,0.0272,0.018,0.0177,0.0174,0.0164,0.0167,0.017,0.0173,0.0018,0.0009,0.0,-0.0116,0,0,-0.0028,-0.0032,0,0,0,0,0,0,0,0,0.0222,0.0219,0.0275,0.0274,0.0272,0.0197,0.0113,0.0078,0.0163,0.0194,0.0171,0.0174,0.0074,0.006,0.0021,-0.0123,-0.013,-0.0028,-0.0034,-0.0038,-0.004,0,0,0,0,0,0,0,0.0225,0.0222,0.0233,0.0275,0.0273,0.0201,0.0199,0.0104,0.011,0.0192,0.0193,0.0196,0.0072,0.003,0.0017,-0.0132,-0.0028,-0.0036,-0.0042,-0.0045,-0.027,-0.027,0,0,0,0,0,0,0.0266,0.0226,0.0236,0.023,0.0265,0.0201,0.0197,0.021,0.0112,0.0104,0.0194,0.0196,0.0044,0.0028,0.0012,-0.0042,-0.0038,-0.0046,-0.0051,-0.0269,-0.027,-0.027,0,0,0,0,0,0,0.0266,0.0268,0.0241,0.0233,0.0226,0.0201,0.0212,0.0206,0.0219,0.0116,0.0105,0.0222,0.0045,0.0024,-0.0038,-0.0051,-0.005,-0.0059,-0.0269,-0.0269,-0.027,-0.0207,0,0,0,0,0,0,0.0266,0.0269,0.0302,0.0236,0.0228,0.02,0.021,0.0202,0.0218,0.0221,0.0134,0.012,0.0046,-0.0024,-0.0047,-0.0063,-0.0066,-0.0268,-0.0269,-0.027,-0.0208,-0.0205,-0.0203,0,0,0,0,0,0.0265,0.0273,0.0304,0.0306,0.0272,0.0201,0.0188,0.0172,0.0217,0.02,0.0161,0.0126,-0.0046,-0.0032,-0.0059,-0.0078,-0.0267,-0.0269,-0.027,-0.0209,-0.0206,-0.0203,0,0,0,0,0,0,0.0269,0.0272,0.0304,0.0315,0.0282,0.0204,0.0204,0.0202,0.0157,0.0192,0.0106,0.0085,0.0022,-0.0034,-0.0016,-0.0143,-0.0159,-0.0165,-0.0104,-0.0101,-0.0099,-0.0089,-0.0073,0,0,0,0,0,0.0295,0.0319,0.0291,0.0306,0.0305,0.0274,0.0258,0.0252,0.0203,0.0191,0.0145,0.0084,-0.0019,-0.0055,-0.0142,-0.0216,-0.0203,-0.0241,-0.0238,-0.0236,-0.0246,-0.0229,-0.0225,-0.0274,-0.0274,-0.0274,0,0,0.0304,0.0312,0.0328,0.0312,0.0301,0.0259,0.027,0.0264,0.0221,0.0176,0.014,0.0091,-0.0036,-0.0121,-0.0152,-0.0158,-0.0204,-0.0237,-0.0234,-0.0246,-0.023,-0.0225,-0.022,-0.0275,-0.0275,-0.0275,0,0,0.0299,0.0348,0.0358,0.0335,0.0338,0.0293,0.031,0.0278,0.0265,0.0224,0.0167,0.0129,0.0012,-0.0094,-0.0168,-0.0203,-0.0191,-0.0216,-0.02,-0.0183,-0.0178,-0.0174,-0.0093,-0.0082,-0.0213,-0.0212,-0.0212,0,0.033,0.0332,0.034,0.0328,0.0315,0.0317,0.0292,0.0242,0.0198,0.0166,0.0235,0.0074,0.001,-0.0167,-0.016,-0.0199,-0.0153,-0.0202,-0.0176,-0.0172,-0.0169,-0.0087,-0.0076,-0.0209,-0.021,-0.021,-0.021,0,0.0289,0.0323,0.0324,0.0316,0.0279,0.0273,0.0214,0.0196,0.0227,0.018,0.0108,0.0048,-0.0043,-0.0071,-0.0123,-0.0177,-0.0134,-0.0169,-0.0174,-0.0159,-0.0074,-0.0064,-0.0205,-0.0206,-0.0207,-0.0208,0,0,0.0314,0.0307,0.0323,0.0329,0.0293,0.0253,0.0181,0.0092,0.0043,0.0059,-0.0002,-0.0106,-0.0068,-0.0148,-0.0201,-0.0181,-0.0078,-0.014,-0.014,-0.004,0.0034,-0.0091,-0.0091,-0.0085,-0.0085,-0.0084,0.0107,0,0.031,0.0298,0.0275,0.0252,0.0242,0.0204,0.0116,0.0038,-0.0001,-0.0061,-0.0101,-0.0157,-0.0132,-0.0125,-0.0111,-0.0128,-0.0056,-0.0122,-0.0015,-0.0011,-0.011,-0.0088,-0.0082,0.0115,0.0117,0.0119,0.012,0,0.0283,0.0286,0.0272,0.024,0.0231,0.0206,0.0095,0.0034,-0.0096,-0.0111,-0.0154,-0.0194,-0.0221,-0.0144,-0.0094,-0.0124,-0.0013,0.0021,0.0029,-0.0116,-0.0121,0.0078,0.0139,0.0138,0.0136,0.0135,0.0134,0,0.0286,0.0287,0.0285,0.0277,0.0213,0.0206,0.019,0.0054,-0.0017,-0.0092,-0.0136,-0.019,-0.0176,-0.009,-0.002,-0.002,0.0077,0.0073,0.0074,0.0071,0.0105,0.0097,0.0183,0.0183,0.0182,0.0182,0.0181,0,0.0274,0.0285,0.0319,0.0319,0.0293,0.0276,0.0223,0.0161,0.0073,-0.0052,-0.0094,-0.0203,-0.0147,-0.0137,-0.002,0.004,0.0097,0.008,0.0089,0.0135,0.0127,0.0117,0.0107,0.0189,0.0188,0.0186,0.0185,0,0.0253,0.0286,0.0282,0.0288,0.03,0.0307,0.0288,0.0211,0.0167,0.0012,0.0004,-0.0154,-0.0163,-0.0122,-0.001,0.0021,0.0105,0.0143,0.0227,0.0238,0.0114,0.0105,0.016,0.0157,0.0154,0.0151,0.0149,0,0.0223,0.0231,0.0269,0.027,0.0298,0.0324,0.0292,0.0277,0.0161,-0.0008,-0.0124,-0.0173,-0.0275,-0.0173,-0.0133,0.0052,0.007,0.0161,0.0099,0.0098,0.0103,0.0098,0.0093,0.0145,0.0144,0.0144,0.0143,0,0.014,0.0183,0.0171,0.0199,0.022,0.0182,0.0161,0.0114,0.0018,-0.0044,-0.0208,-0.0233,-0.0291,-0.0247,-0.0111,0.001,0.0096,0.0132,0.014,0.0082,0.008,0.0087,0.0085,0.0133,0.0134,0.0135,0.0136,0,0.0076,0.0042,0.0058,0.0088,0.0088,0.0045,0.0066,-0.0025,-0.0078,-0.0228,-0.0283,-0.0315,-0.0334,-0.0271,-0.0167,-0.0072,-0.0055,0.0011,0.0025,0.0036,-0.0111,-0.0138,-0.0143,0,0,0,0,0,-0.001,-0.0048,-0.0061,-0.0038,-0.0029,-0.0023,-0.0087,-0.0087,-0.0144,-0.0248,-0.0245,-0.0293,-0.0249,-0.0265,-0.0182,-0.0247,-0.0056,-0.0156,0.0026,0.0079,0.009,-0.0083,0,0,0,0,0,0,-0.0086,-0.0117,-0.0107,-0.0132,-0.0122,-0.0152,-0.017,-0.0203,-0.0261,-0.0291,-0.025,-0.0274,-0.0211,-0.0258,-0.0172,-0.0167,-0.0045,-0.0142,-0.0141,0.0072,0.0083,0.0092,-0.0082,0,0,0,0,0]}]]